Weather History for LIMH - September, 2013

Change the Weather History Date:

Friday, September 13, 2013

  Actual Average Record
Temperature  
Mean Temperature 22 °F -  
Max Temperature 28 °F 32 °F 46 °F (2011)
Min Temperature 17 °F 24 °F 10 °F (1996)
Degree Days  
Heating Degree Days 42    
Moisture  
Dew Point 2 °F    
Average Humidity 41    
Maximum Humidity 86    
Minimum Humidity 14    
Precipitation  
Precipitation 0.00 in - - ()
Sea Level Pressure  
Sea Level Pressure 30.28 in    
Wind  
Wind Speed 18 mph ()    
Max Wind Speed 29 mph    
Max Gust Speed -    
Visibility 6.2 miles    
Events      
Averages and records for this station are not official NWS values.
T = Trace of Precipitation, MM = Missing Value Source: Averaged Metar Reports

Daily Weather History Graph

Daily Weather History Graph

Search for Another Location

Airport or City:

Trip Planner

Search our weather history database for the weather conditions in past years. The results will help you decide how hot, cold, wet, or windy it might be!

Date:

Astronomy

Sep. 13, 2013 Rise Set
Actual Time 7:04 AM CEST 7:44 PM CEST
Civil Twilight 6:34 AM CEST 8:14 PM CEST
Nautical Twilight 5:58 AM CEST 8:50 PM CEST
Astronomical Twilight 5:21 AM CEST 9:27 PM CEST
Moon 3:33 PM CEST (9/13) 12:04 AM CEST (9/13)
Length of Visible Light 13h 39m
Length of Day
12h 39m
First Quarter, 58% of the Moon is Illuminated
Sep 13
First Quarter
Sep 19
Full
Sep 27
Last Quarter
Oct 5
New
Oct 12
First Quarter

Hourly Weather History & Observations

Time (CEST) Temp. Windchill Dew Point Humidity Pressure Visibility Wind Dir Wind Speed Gust Speed Precip Events Conditions
12:55 AM 19.4 °F 4.1 °F 15.8 °F 86% 30.18 in - ENE 18.4 mph - N/A   Clear
1:55 AM 19.4 °F 5.0 °F 15.8 °F 86% 30.18 in - NE 16.1 mph - N/A   Clear
2:55 AM 17.6 °F 2.2 °F 12.2 °F 79% 30.18 in - ENE 17.3 mph - N/A   Clear
3:55 AM 21.2 °F 5.6 °F 15.8 °F 80% 30.18 in - ENE 20.7 mph - N/A   Clear
4:55 AM 19.4 °F 3.2 °F 10.4 °F 68% 30.18 in - ENE 20.7 mph - N/A   Clear
5:55 AM 19.4 °F 2.5 °F 8.6 °F 63% 30.18 in - ENE 23.0 mph - N/A   Clear
6:55 AM 19.4 °F 2.1 °F 8.6 °F 63% 30.18 in - ENE 24.2 mph - N/A   Clear
7:55 AM 21.2 °F 3.5 °F 5.0 °F 50% 30.21 in - ENE 27.6 mph - N/A   Clear
8:00 AM 22 °F - 6 °F 35%  in 31 mi ENE 27.6 mph - -   Partly Cloudy
8:55 AM 24.8 °F 10.0 °F -0.4 °F 34% 30.21 in - ENE 21.9 mph - N/A   Clear
9:55 AM 23.0 °F 7.2 °F -0.4 °F 36% 30.24 in - ENE 23.0 mph - N/A   Clear
10:55 AM 23.0 °F 8.3 °F -0.4 °F 36% 30.27 in - ENE 19.6 mph - N/A   Clear
11:00 AM 23 °F - -1 °F 21%  in 31 mi ENE 19.6 mph - -  
11:55 AM 23.0 °F 9.2 °F 1.4 °F 39% 30.30 in - ENE 17.3 mph - N/A   Clear
12:55 PM 23.0 °F 8.7 °F 1.4 °F 39% 30.30 in - ENE 18.4 mph - N/A   Clear
1:55 PM 24.8 °F 12.4 °F -2.2 °F 31% 30.33 in 6.2 mi NE 15.0 mph - N/A   Partly Cloudy
2:00 PM 25 °F - -3 °F 16%  in 25 mi NE 15.0 mph - -   Scattered Clouds
2:55 PM 26.6 °F 16.2 °F -5.8 °F 24% 30.33 in - NE 11.5 mph - N/A   Clear
4:55 PM 26.6 °F 14.3 °F -2.2 °F 29% 30.33 in 6.2 mi ENE 16.1 mph - N/A   Partly Cloudy
5:55 PM 28.4 °F 15.1 °F -13.0 °F 16% 30.36 in - NE 20.7 mph - N/A   Clear
6:55 PM 28.4 °F 15.8 °F -14.8 °F 15% 30.36 in 6.2 mi NE 18.4 mph - N/A   Partly Cloudy
7:55 PM 26.6 °F 11.7 °F -2.2 °F 29% 30.36 in 6.2 mi NE 24.2 mph - N/A   Partly Cloudy
8:00 PM 27 °F - -3 °F 14%  in 37 mi NE 24.2 mph - -   Scattered Clouds
8:55 PM 26.6 °F 12.0 °F 3.2 °F 37% 30.36 in - NE 23.0 mph - N/A   Clear
9:55 PM 26.6 °F 11.4 °F -0.4 °F 31% 30.36 in 6.2 mi NE 25.3 mph - N/A   Partly Cloudy
10:55 PM 26.6 °F 11.4 °F -2.2 °F 29% 30.39 in 6.2 mi NE 25.3 mph - N/A   Partly Cloudy
11:00 PM 27 °F - -3 °F 14%  in 6 mi NE 25.3 mph - -   Scattered Clouds
11:55 PM 26.6 °F 10.6 °F 8.6 °F 47% 30.36 in 6.2 mi NE 28.8 mph - N/A   Scattered Clouds